GFSSE_prec_cthk_000.txt.gz
RH
60 52 46 43 43 47 43 42 45 48 48 53 57 63 67 69 70 72 73 71 68 67 62 61 50 61 47 40 32 24 19 16 18 18 16 16 14 16 17 18 24 23 22
49 46 41 38 37 39 42 43 43 47 49 50 52 58 69 73 64 73 77 87 88 82 79 76 73 69 60 41 35 28 22 18 16 17 18 18 18 17 17 20 22 30 26
46 49 41 40 39 38 39 41 44 47 43 50 54 54 59 72 78 79 79 82 90 88 84 85 81 83 69 45 41 34 31 31 24 18 19 20 23 19 17 19 28 32 36
45 48 43 39 39 36 36 35 34 38 42 47 43 41 58 65 67 75 73 73 64 73 78 82 86 97 85 76 59 45 39 38 28 23 22 33 40 35 27 21 25 31 35
41 40 38 38 38 36 36 35 35 34 36 40 43 53 61 64 67 76 75 71 61 63 63 78 87 98 97 91 86 69 54 41 31 32 31 33 42 38 35 24 24 25 29
38 33 33 33 30 32 33 33 35 35 36 37 38 42 44 49 53 56 55 55 56 53 58 79 82 81 97 95 95 88 70 60 34 38 35 47 43 36 41 33 27 29 30
33 32 33 30 32 32 31 31 33 37 38 38 38 37 35 36 39 41 45 49 50 55 66 66 62 56 95 82 84 80 67 61 47 40 43 51 42 33 37 37 33 35 35
39 36 35 36 34 29 23 22 26 31 34 33 32 34 37 37 35 35 35 36 34 36 39 40 46 63 72 78 71 67 58 54 50 40 53 59 52 52 44 41 35 42 42
43 42 42 33 30 26 23 24 24 25 26 28 30 30 35 33 30 29 29 28 24 20 22 29 35 51 63 66 63 60 52 44 43 41 52 61 61 57 61 53 47 42 48
32 35 34 33 30 23 22 24 24 28 30 29 28 27 28 29 28 28 29 33 36 34 32 35 39 45 52 54 60 56 58 48 46 46 56 65 62 59 61 61 50 52 52
31 26 24 26 31 26 33 28 28 32 30 31 32 32 37 37 37 34 34 41 45 48 50 52 51 48 49 53 54 63 57 60 58 58 64 69 68 68 65 61 57 58 61
31 28 29 28 32 34 42 44 45 45 41 39 38 34 37 37 33 30 27 27 29 30 35 42 55 59 57 59 63 60 67 61 62 69 71 74 74 79 77 73 65 61 61
33 35 35 33 30 33 44 45 49 38 34 33 29 30 28 23 18 16 14 16 14 15 20 26 46 53 47 52 73 76 76 74 66 67 70 77 80 76 81 79 74 68 68
28 27 23 20 16 16 22 26 29 25 23 25 21 18 19 17 14 12 12 12 11 12 14 15 16 19 28 39 83 92 92 89 80 78 78 78 77 80 81 83 82 74 70
20 20 19 15 13 15 17 19 21 21 18 18 16 16 17 19 15 16 15 15 15 16 16 17 17 18 19 28 47 87 79 86 90 87 83 83 81 82 84 81 83 72 72
20 21 19 16 15 16 21 19 18 17 17 17 18 18 18 20 19 24 24 23 22 21 21 25 26 26 25 24 29 43 68 75 82 89 89 85 80 81 80 81 83 75 75
22 21 19 18 20 21 24 24 24 24 25 25 24 22 21 22 22 23 25 29 29 23 23 23 24 27 29 31 28 37 50 60 72 76 83 89 86 82 80 80 81 82 77
24 23 22 23 24 27 28 31 31 32 32 33 34 32 31 31 30 31 34 32 30 34 35 32 31 30 30 32 34 31 33 46 59 73 74 78 82 85 78 76 74 74 75
25 26 26 28 29 30 32 34 34 35 35 37 40 40 39 40 40 42 42 41 39 40 41 41 41 41 40 37 34 35 38 36 40 57 57 65 67 70 64 68 66 66 66
26 27 27 28 28 30 31 32 34 35 37 39 39 42 42 43 42 44 45 46 47 47 47 48 48 48 47 46 44 38 31 28 28 34 35 43 49 57 53 53 55 52 57
26 26 28 28 29 30 33 35 37 38 40 43 45 47 47 48 46 48 51 52 53 55 56 54 54 55 54 53 50 47 43 37 33 29 28 30 37 52 57 51 49 48 50
27 28 30 32 33 34 36 38 39 41 43 45 48 51 52 51 51 56 57 59 62 63 64 65 65 62 60 58 56 52 48 46 42 44 43 43 47 59 66 65 64 52 45
32 33 35 36 37 38 39 42 42 44 49 51 53 55 54 56 62 66 68 71 71 71 72 71 68 67 67 67 64 60 55 52 50 45 44 43 46 49 53 65 77 69 57
37 39 41 42 44 46 46 47 51 51 52 55 58 60 63 66 70 73 75 77 79 77 80 81 79 76 73 69 66 69 64 59 56 53 50 45 41 39 39 45 57 65 69
42 43 45 48 51 54 55 54 54 58 58 63 66 68 71 74 75 75 78 84 87 86 82 81 72 69 71 71 69 68 67 65 64 61 55 53 50 43 37 32 31 40 52
47 48 51 54 55 56 58 60 59 57 62 65 68 70 72 73 76 81 83 86 81 79 80 71 70 69 69 69 68 64 62 64 65 63 59 56 54 49 44 38 34 32 32

GFSSE_prec_cthk_003.txt.gz
RH
55 46 43 47 50 49 49 50 51 48 49 52 56 60 64 61 64 56 57 59 59 55 60 66 68 70 62 52 49 38 31 32 31 31 31 39 34 29 25 22 26 29 29
47 46 45 45 44 44 45 44 45 44 44 51 51 57 62 61 65 67 67 72 72 77 78 74 70 68 72 65 54 47 40 27 19 17 20 17 22 21 16 14 16 18 23
46 44 40 40 42 41 41 41 40 42 45 43 49 46 52 58 62 62 68 72 72 70 73 65 74 81 85 84 70 53 46 35 27 21 17 18 18 18 15 14 16 18 27
44 43 40 42 40 38 36 33 33 36 38 40 33 31 38 52 56 59 61 59 61 66 56 55 69 91 89 95 85 72 54 45 38 26 20 26 24 28 28 19 17 23 28
39 38 36 34 34 35 33 31 30 30 32 36 36 40 46 49 52 56 51 50 53 53 53 51 60 65 70 86 91 83 72 59 50 33 28 28 28 37 34 29 21 25 26
32 30 30 31 31 31 31 30 28 26 28 31 34 35 36 36 40 40 40 37 39 45 52 54 53 63 73 62 69 89 97 82 57 36 32 35 33 37 37 36 25 26 26
32 31 31 31 31 30 29 30 26 25 23 26 30 32 34 33 31 30 31 29 30 36 41 41 44 52 52 48 58 62 81 70 57 43 32 36 38 38 38 39 35 27 28
35 36 36 35 35 33 29 24 23 23 23 25 26 28 30 29 29 29 30 27 27 28 32 33 30 29 35 36 49 63 71 72 67 55 42 36 37 43 44 35 36 31 33
30 31 32 30 28 24 19 19 17 18 22 26 28 29 28 28 27 26 27 28 28 31 30 29 29 30 33 37 40 55 69 75 66 57 56 51 41 42 53 52 46 40 40
30 33 30 27 25 25 18 20 21 24 27 27 25 26 29 31 31 30 29 29 34 38 39 37 40 40 40 43 45 46 47 60 71 60 46 47 45 47 52 58 65 56 48
32 26 25 27 24 24 27 32 33 36 36 35 32 30 30 33 28 23 22 21 22 24 25 28 29 35 43 46 53 51 49 51 58 66 55 41 51 49 57 61 63 67 59
41 35 28 29 31 29 30 30 33 38 39 26 21 18 19 20 19 16 12 12 12 10 11 14 21 32 38 44 42 41 43 55 55 60 68 63 58 55 59 66 64 61 58
37 31 25 24 21 19 21 25 26 28 28 26 21 18 19 16 14 12 10 12 13 12 16 19 21 27 32 32 36 31 37 53 65 60 63 69 71 68 68 75 75 66 63
24 20 18 17 15 13 15 16 19 21 20 18 18 16 16 16 16 14 14 13 14 15 17 19 20 22 22 21 23 29 40 57 81 73 67 68 71 76 77 79 80 76 74
21 19 17 17 15 13 13 17 21 23 22 22 22 19 19 20 20 19 20 19 20 21 22 22 23 23 23 26 29 31 32 45 64 77 79 77 76 76 80 84 86 82 80
20 20 20 20 18 16 17 21 25 28 29 28 26 26 26 26 27 26 28 26 27 27 27 27 27 28 27 27 27 32 37 40 48 59 68 86 86 83 84 86 85 84 84
21 23 23 25 24 24 27 29 30 31 31 30 30 31 31 32 33 33 35 35 35 35 32 32 31 31 31 33 33 33 32 36 47 49 58 76 83 91 86 86 87 81 82
23 23 23 24 25 27 28 29 29 30 31 31 32 34 35 36 37 38 39 40 39 38 40 41 40 38 37 36 35 36 39 40 38 48 59 66 72 82 90 92 88 88 84
26 26 26 25 26 27 28 29 31 30 32 34 35 36 38 39 39 39 42 43 44 44 46 49 50 49 47 43 42 41 41 40 37 37 41 52 69 72 75 85 93 92 87
26 26 26 27 28 30 31 34 35 35 36 37 37 40 39 42 44 44 46 48 50 50 51 53 53 54 54 53 51 48 47 47 44 40 34 32 39 63 66 75 85 92 86
30 30 31 32 33 35 37 38 40 40 40 41 44 46 47 49 52 51 50 52 52 55 58 61 61 61 60 59 56 54 52 52 51 48 46 42 37 39 49 62 63 75 76
34 34 35 37 39 41 43 45 46 47 47 48 50 52 53 54 54 53 55 57 59 61 63 66 67 68 66 64 63 61 56 55 54 55 54 52 48 44 42 48 60 72 74
38 40 42 45 45 47 49 49 50 50 50 52 54 56 57 57 58 59 62 65 67 69 68 70 72 73 72 69 66 64 64 63 60 60 57 56 55 52 49 48 56 76 85
41 43 44 46 49 52 53 53 54 55 56 56 58 60 61 61 62 64 69 73 72 73 72 74 75 75 76 71 63 65 63 61 64 63 63 58 57 57 55 51 56 64 79
45 46 48 51 53 56 58 59 59 60 61 61 64 65 65 66 66 72 77 78 78 80 81 84 82 78 80 70 69 70 69 66 66 66 62 67 63 59 57 55 51 55 61
48 50 52 56 60 60 59 61 61 60 63 67 68 68 69 70 72 74 76 78 81 83 86 90 90 88 77 74 72 67 64 62 60 63 62 62 67 62 58 54 53 48 44

GFSSE_prec_cthk_006.txt.gz
RH
58 51 50 49 47 49 52 57 60 60 55 55 54 53 56 57 56 60 62 69 71 72 70 65 57 68 70 66 68 56 45 44 45 50 37 31 38 58 57 43 46 36 33
49 48 45 44 45 45 44 48 48 49 44 49 48 48 52 57 55 54 58 64 67 73 72 68 58 61 74 75 72 76 59 50 34 36 33 31 32 34 28 27 29 31 30
48 46 42 43 44 45 45 45 44 45 45 46 45 46 46 52 56 58 64 65 67 59 54 52 48 54 68 71 78 80 67 61 47 37 33 30 32 31 25 20 21 18 19
47 46 39 37 37 37 41 39 37 36 40 40 33 32 36 41 50 57 56 60 59 54 48 49 44 52 62 77 81 89 81 65 53 44 37 29 31 38 32 28 23 19 25
40 38 36 36 34 33 32 32 32 33 32 31 29 30 32 39 44 47 47 51 49 47 46 44 45 46 52 62 62 57 72 71 53 40 34 27 26 36 39 32 24 22 27
33 32 28 29 30 30 31 33 34 32 30 26 24 20 24 29 33 36 36 34 33 40 44 42 50 52 54 58 51 47 65 74 65 47 45 31 29 24 33 35 30 21 28
30 32 32 32 31 31 31 32 32 29 26 23 23 21 21 23 27 27 28 29 31 28 31 34 39 43 51 53 54 48 50 60 78 64 52 38 32 30 33 34 31 29 24
33 32 31 35 35 33 30 27 24 21 18 20 20 19 21 22 24 25 23 23 25 27 28 29 29 33 32 35 38 39 53 60 68 78 64 52 42 35 37 39 33 34 26
31 30 30 32 30 29 24 23 23 20 21 21 20 21 21 21 22 22 24 24 25 26 28 32 33 34 36 38 39 48 51 70 71 77 75 71 58 47 42 44 43 36 34
31 31 33 29 25 25 25 25 28 29 31 34 33 22 20 21 25 25 19 17 16 18 20 22 26 27 31 43 46 49 51 57 74 74 77 78 62 56 54 53 53 50 46
44 47 41 32 29 32 32 28 27 30 34 35 30 22 20 22 20 18 14 11 11 11 11 14 18 22 30 34 39 50 48 50 53 61 68 71 62 57 62 55 59 63 60
41 41 37 30 22 19 16 16 18 18 20 22 19 17 17 18 17 14 12 11 11 11 11 13 16 21 25 33 37 39 37 38 40 46 57 67 63 66 68 63 67 69 67
38 36 29 24 16 14 13 15 17 16 18 19 18 18 18 17 16 17 16 16 16 16 15 19 21 22 24 29 31 30 29 38 34 38 48 58 67 64 64 68 64 67 73
30 25 24 19 18 17 15 16 17 21 24 24 26 26 26 23 22 21 20 20 21 20 21 23 25 25 25 25 24 22 27 30 35 42 51 66 68 72 72 76 82 75 76
26 25 23 22 22 20 20 21 25 28 30 31 30 30 29 28 28 29 28 28 28 28 27 28 28 29 30 29 27 27 28 30 32 41 52 60 70 72 76 78 81 88 87
25 22 20 20 22 24 24 26 31 32 33 34 35 35 32 31 32 33 34 35 35 34 33 32 31 31 31 31 31 30 30 30 35 41 50 58 62 77 76 76 82 87 90
25 25 26 26 26 25 25 27 30 31 32 31 31 31 32 34 34 35 35 37 38 39 40 40 40 38 38 38 37 36 36 35 36 40 47 49 49 53 61 74 81 85 85
28 27 28 27 27 26 26 28 30 32 35 37 37 37 38 38 39 39 38 40 41 41 42 43 45 45 46 46 47 46 45 42 38 36 35 40 51 57 62 70 80 92 91
26 27 29 30 31 32 32 34 36 37 40 41 42 43 43 43 45 45 45 46 47 47 48 49 50 50 50 50 51 51 50 49 47 43 41 38 33 46 60 72 81 84 94
31 32 34 34 34 36 38 40 42 43 44 45 46 47 48 50 52 52 51 52 53 53 53 54 54 55 55 56 55 56 56 55 53 53 48 46 45 40 42 59 70 78 83
35 37 38 39 40 43 44 45 46 47 47 48 49 49 51 53 54 55 56 55 56 56 56 57 59 60 61 62 61 60 55 53 54 54 54 54 53 51 47 43 51 70 77
41 41 44 46 48 50 49 48 49 49 50 51 53 54 54 56 57 59 60 61 61 61 61 61 62 63 64 65 65 63 60 55 52 53 55 55 53 57 56 54 47 51 68
41 42 44 48 52 53 52 50 49 48 49 50 52 54 55 55 57 59 62 64 65 65 65 67 67 66 65 66 67 68 64 60 53 55 55 57 60 56 58 62 61 55 54
42 44 45 48 51 52 53 53 53 52 53 55 56 57 58 59 60 61 63 64 67 69 71 71 70 67 64 66 68 73 71 68 64 55 54 57 60 62 60 60 64 66 61
48 49 53 55 56 59 61 58 55 52 50 53 56 59 60 61 61 61 63 63 65 67 69 71 73 74 73 72 73 78 75 74 72 63 50 46 51 57 65 61 62 68 68
56 59 58 60 65 65 68 68 61 56 55 58 61 63 63 66 68 75 69 68 71 71 72 75 81 81 83 83 82 84 81 73 67 64 58 48 44 48 56 66 60 56 65

GFSSE_prec_cthk_009.txt.gz
RH
49 52 61 62 61 57 56 56 59 61 62 58 58 56 55 50 52 60 60 61 66 67 62 64 64 62 57 56 57 61 61 61 65 64 58 42 30 39 59 66 49 54 59
47 47 50 50 50 50 52 54 56 54 52 56 56 54 56 52 53 53 56 62 57 57 61 59 55 51 49 50 56 65 65 57 52 51 48 41 27 28 42 63 49 45 51
40 44 48 46 49 48 46 48 52 50 51 50 48 47 53 53 53 52 49 51 55 57 56 56 54 47 47 47 55 63 66 70 67 58 49 43 32 31 36 41 39 42 42
44 44 41 39 39 39 38 38 40 42 44 40 37 35 39 44 47 55 55 57 55 54 52 54 50 47 45 43 52 61 66 69 75 73 56 45 39 32 36 35 27 27 24
40 39 37 36 34 34 33 32 32 32 33 33 34 33 32 36 38 42 51 55 54 49 47 47 47 46 44 48 53 49 53 62 75 74 64 53 40 36 40 42 30 28 21
38 34 30 29 29 27 26 27 29 29 30 29 29 25 22 23 23 26 33 36 36 37 39 43 43 45 44 45 54 57 50 56 72 78 70 65 44 39 42 48 32 32 22
33 31 29 29 28 28 29 31 30 31 29 25 20 17 18 19 20 22 24 26 27 29 31 32 35 35 43 44 52 57 54 51 64 72 85 67 54 40 40 51 43 42 30
32 30 27 26 26 26 23 22 21 21 22 22 22 21 20 20 21 23 24 24 24 26 27 28 29 28 30 35 44 45 49 51 60 67 92 83 63 41 36 51 51 39 35
26 26 26 23 22 22 20 20 22 23 24 27 29 30 24 19 22 25 26 26 23 23 23 25 23 25 26 27 34 37 45 49 64 72 77 82 70 55 55 46 51 42 37
32 33 32 29 26 25 26 26 25 25 28 32 34 24 19 19 20 20 18 16 13 14 13 15 17 18 21 24 29 36 43 50 57 75 82 84 81 73 63 61 53 56 47
28 32 32 33 30 23 18 15 17 17 22 25 23 18 17 18 18 17 14 11 10 11 11 13 15 17 20 25 34 36 41 45 50 58 72 75 70 70 70 73 61 64 63
26 32 33 28 23 17 16 14 16 16 18 20 21 19 18 20 19 17 15 14 15 14 13 14 17 19 22 25 30 37 38 39 35 35 44 69 76 76 68 65 66 63 68
33 36 37 30 26 20 19 17 16 18 20 23 23 24 24 24 23 21 21 21 20 20 19 18 20 21 23 25 26 27 28 27 27 32 33 34 37 51 69 63 65 75 74
32 38 31 26 23 22 21 20 21 25 29 31 30 30 30 30 28 28 28 28 27 26 25 25 26 27 28 28 29 27 25 24 25 26 26 33 36 43 55 68 67 72 76
31 31 29 27 25 24 23 23 24 29 32 33 33 34 33 33 31 30 31 31 32 32 32 31 30 30 31 30 30 29 29 29 30 32 32 35 38 47 52 62 75 80 80
31 31 31 30 29 28 29 27 27 30 33 35 36 39 39 39 35 33 33 34 35 36 36 36 36 35 34 33 33 32 32 31 31 31 34 37 42 51 56 58 66 78 82
30 31 30 30 29 28 29 29 31 34 36 38 39 40 41 41 41 41 41 41 42 41 41 41 40 40 40 39 39 39 39 38 37 35 34 33 36 53 57 57 64 75 78
30 32 34 36 37 37 36 37 38 39 40 42 44 44 44 44 44 43 44 44 44 44 45 45 45 46 46 46 46 45 45 45 44 43 42 39 37 35 35 45 53 61 75
34 37 39 40 41 39 39 40 42 43 43 43 44 45 46 46 47 47 49 49 49 49 50 50 50 50 51 50 50 51 52 51 51 50 48 46 44 43 42 38 35 54 60
39 42 43 45 44 46 46 46 47 46 45 44 45 45 46 47 48 49 51 52 51 52 53 53 54 54 55 55 55 57 57 57 56 53 51 51 50 49 47 47 45 39 54
42 44 44 46 49 50 51 51 48 49 48 46 45 46 48 49 51 51 51 53 53 53 53 54 56 57 58 58 58 58 58 58 57 56 53 50 49 48 48 52 52 51 43
44 45 45 49 53 55 56 54 54 53 52 50 50 49 50 52 53 54 55 57 57 56 56 56 56 58 60 60 59 58 55 56 57 57 56 52 48 48 50 49 52 56 56
47 50 53 53 53 54 56 59 60 57 55 53 51 48 49 52 52 53 55 57 60 61 60 60 57 54 55 56 56 56 56 54 54 55 55 54 53 48 46 48 49 52 61
53 54 52 54 56 56 56 56 56 57 56 56 54 50 49 54 56 57 56 57 60 64 70 71 68 64 64 64 63 65 59 55 55 49 53 53 58 56 49 47 47 50 57
54 55 58 60 61 60 63 62 61 60 56 51 48 46 47 50 54 55 58 59 64 67 72 80 80 73 73 71 75 76 73 67 64 63 49 47 54 57 56 51 49 50 55
59 61 62 64 62 63 65 64 62 61 57 51 50 49 49 50 52 55 59 62 65 69 72 87 84 73 76 82 85 83 84 80 75 76 62 47 49 52 54 52 51 49 48

GFSSE_prec_cthk_015.txt.gz
RH
55 59 61 62 59 58 60 57 63 61 63 67 62 60 57 57 56 60 63 61 60 60 60 60 60 56 58 59 56 50 52 52 49 58 65 68 65 61 60 57 61 63 63
47 52 52 53 54 55 60 62 62 63 62 60 56 51 49 49 53 52 55 57 59 62 63 60 61 60 60 61 55 52 51 53 50 48 46 49 56 59 53 54 51 56 59
43 42 42 44 45 49 46 45 47 45 44 45 44 40 43 46 48 49 50 52 56 57 57 60 62 62 63 61 53 52 52 52 60 61 66 65 65 64 60 48 44 50 57
39 36 38 40 39 37 37 35 32 33 37 37 33 31 38 42 42 45 48 49 54 52 53 54 58 57 59 55 52 52 48 51 58 66 70 73 70 70 70 50 42 47 49
32 31 34 35 34 33 32 31 30 30 31 29 27 27 26 27 31 33 38 46 46 44 48 43 40 40 45 47 50 50 48 52 61 64 63 71 76 72 71 62 50 49 52
28 29 29 32 32 31 30 29 26 25 24 21 20 18 21 21 23 27 27 28 25 25 25 27 29 31 35 42 46 46 44 44 53 63 59 70 87 80 78 68 53 56 57
28 29 29 29 27 26 26 23 20 20 20 23 24 24 26 27 25 27 28 27 25 25 24 25 26 28 31 36 39 39 44 47 50 53 57 65 82 84 81 68 61 66 64
27 26 25 25 25 24 23 20 19 21 20 20 23 26 26 20 20 22 23 25 26 27 25 26 26 27 26 26 28 33 39 47 53 55 59 60 63 70 87 78 63 68 73
26 26 24 27 27 26 21 17 13 11 15 19 22 23 17 15 16 17 18 18 15 10 9 10 13 18 21 23 24 25 27 32 42 51 54 58 56 69 92 88 77 66 70
27 27 29 27 24 19 15 13 10 9 13 16 19 19 18 16 18 19 19 17 12 11 10 10 11 12 13 15 17 20 24 32 38 38 42 50 55 68 89 88 88 73 64
26 30 27 25 23 18 16 14 12 12 14 16 18 21 22 22 23 25 25 23 20 18 17 17 16 15 16 17 19 21 26 30 35 39 38 42 47 54 71 85 89 84 75
24 26 25 28 23 21 19 19 18 17 20 24 26 27 27 28 27 28 27 26 25 24 24 23 22 21 19 20 20 20 23 27 31 36 41 42 41 39 43 62 86 82 79
28 28 31 34 26 25 26 26 25 24 24 25 27 28 30 30 31 32 32 31 31 32 32 31 30 29 27 26 24 23 22 22 22 21 20 24 27 27 34 41 60 85 74
29 31 35 38 29 28 28 28 29 30 31 32 34 35 37 38 38 39 40 40 38 37 37 37 36 36 36 35 32 29 27 26 24 24 24 23 25 25 26 28 29 52 72
31 32 34 37 33 33 34 33 32 34 35 36 37 38 39 41 42 43 43 42 42 41 41 41 41 41 41 40 39 36 33 31 30 28 28 27 26 26 27 29 30 30 39
34 38 41 42 37 36 37 35 36 38 39 39 39 39 38 39 39 40 41 42 42 42 41 42 42 43 43 43 42 42 40 39 37 36 35 33 31 30 28 28 29 32 37
36 40 42 44 40 40 41 40 40 40 40 40 40 41 40 41 40 39 39 40 40 41 42 43 43 44 44 44 44 44 45 45 44 43 42 41 39 37 35 33 32 30 31
39 41 45 47 46 45 45 46 45 44 43 45 47 46 44 45 43 42 42 42 43 43 43 44 44 44 45 46 46 46 47 47 48 47 47 46 45 45 42 40 38 37 34
38 42 49 51 50 48 48 50 51 48 49 51 52 51 48 49 48 46 45 45 46 46 46 46 46 45 45 46 47 48 49 49 48 49 50 50 49 48 48 46 43 41 40
38 42 48 49 50 49 50 51 53 53 53 55 55 54 55 54 52 51 45 42 44 47 47 47 47 47 47 46 46 47 49 50 52 53 54 53 53 53 52 50 49 47 44
38 44 49 51 52 53 54 55 56 56 56 54 54 56 55 54 52 49 47 43 42 43 45 48 48 50 49 51 52 51 50 50 51 52 53 54 54 54 53 53 52 50 50
47 49 51 53 54 55 55 58 56 54 55 55 56 54 54 53 50 47 45 43 43 42 44 47 51 51 51 52 51 53 51 52 54 55 53 52 52 52 52 51 51 48 48
51 53 56 57 56 56 56 56 56 56 57 58 59 58 55 54 52 47 46 45 44 43 43 45 47 50 52 55 56 56 55 50 57 56 62 62 58 55 54 52 49 47 46
55 56 57 58 59 59 60 61 62 62 59 58 58 57 53 53 52 51 46 42 40 38 36 38 41 42 50 55 56 56 53 53 58 56 63 72 72 63 61 59 54 48 45
57 59 61 62 64 66 67 67 67 68 63 61 61 54 53 52 49 43 40 37 35 32 31 29 28 30 37 47 53 62 61 62 61 63 58 67 73 69 66 68 69 61 53
61 62 66 68 70 71 71 71 69 68 72 67 66 64 57 51 44 42 40 36 32 30 30 34 39 41 44 46 51 59 64 70 66 64 68 74 74 74 70 75 74 70 64

GFSSE_prec_cthk_021.txt.gz
RH
55 49 53 52 53 53 51 54 52 52 54 55 57 57 53 51 51 51 53 56 56 60 58 59 60 61 55 53 51 53 53 53 54 50 51 47 51 58 58 59 61 78 68
54 50 52 50 48 45 49 51 53 56 55 50 50 49 51 48 48 49 50 55 58 59 54 55 57 54 57 55 59 60 60 58 55 52 46 44 49 48 48 55 59 66 64
53 50 50 42 39 43 48 46 48 45 42 42 42 43 44 43 45 45 47 48 48 50 48 51 53 49 51 51 57 63 61 56 54 54 48 52 75 69 55 56 59 60 62
50 56 38 37 39 35 32 30 30 31 32 36 34 34 32 31 32 35 38 43 43 42 45 48 49 44 46 45 44 43 44 46 48 49 50 55 72 62 60 64 63 63 65
44 39 30 28 25 25 25 25 24 24 23 23 23 23 25 27 28 29 32 34 38 39 40 36 30 31 31 30 31 33 35 39 45 47 50 63 51 58 58 55 62 62 66
34 26 24 23 24 26 26 24 24 22 21 19 19 20 21 23 25 28 27 25 25 24 24 25 26 25 27 29 30 33 36 40 44 45 51 54 50 54 58 58 55 66 65
30 22 21 21 21 22 21 19 17 15 16 17 17 19 21 22 21 17 18 19 20 21 23 23 23 23 24 25 25 26 29 32 34 43 50 60 96 58 60 62 57 52 55
26 24 22 21 18 17 17 15 12 12 13 16 19 21 23 19 15 16 18 19 20 18 15 13 12 11 12 16 19 21 24 24 24 37 46 54 61 63 64 66 61 70 59
28 30 30 22 18 17 13 10 9 10 13 16 19 22 21 18 17 18 21 23 23 19 16 13 12 12 11 11 12 12 13 15 17 35 39 40 42 45 48 55 66 72 66
30 33 31 28 26 23 16 11 10 10 13 13 17 20 20 22 24 24 26 28 27 25 23 22 22 21 18 16 15 15 15 18 26 37 40 42 42 39 38 41 47 57 73
31 30 34 35 25 24 25 18 16 15 17 21 25 24 28 41 39 40 34 30 29 28 27 27 28 27 27 28 30 27 22 28 33 34 42 33 32 36 40 42 48 53 57
32 33 35 29 25 24 28 29 32 29 34 33 36 37 47 43 45 40 42 41 40 38 37 38 37 35 36 42 44 40 41 43 34 38 42 32 28 28 35 41 44 48 52
40 39 39 29 28 31 34 35 43 46 45 49 47 44 50 48 53 51 55 54 52 49 52 50 48 49 48 45 44 43 43 42 44 44 46 36 28 25 25 24 32 46 47
48 41 40 39 31 29 39 47 44 47 49 48 53 47 49 51 50 49 49 47 47 49 48 49 50 50 48 48 46 45 43 43 44 46 46 41 33 30 28 29 30 30 32
49 51 49 45 45 42 40 46 46 47 54 51 55 50 48 48 48 47 47 47 46 45 48 47 46 47 48 47 47 44 44 43 44 43 45 41 38 36 35 33 32 32 33
53 57 56 59 53 49 46 48 50 53 56 57 55 51 49 51 54 52 50 52 52 49 48 46 43 42 42 42 43 42 40 40 42 44 46 43 42 40 39 39 38 36 34
55 60 63 62 58 52 49 50 51 55 50 54 56 54 53 52 52 51 54 55 53 51 48 46 45 44 43 43 41 40 37 36 35 37 39 41 41 43 42 41 41 41 40
56 59 58 57 56 56 56 55 56 58 55 59 61 58 56 52 49 49 50 50 49 46 46 47 45 44 45 46 45 42 39 38 37 36 34 35 38 40 41 43 43 43 43
48 51 54 58 58 61 59 59 60 61 59 65 62 62 62 60 57 55 55 55 53 51 51 53 51 49 49 48 51 49 46 43 41 39 37 36 35 37 39 39 42 43 44
40 43 49 56 60 62 62 62 62 63 64 65 65 66 65 65 65 64 63 63 63 61 57 56 54 50 49 47 48 50 47 45 41 41 42 40 38 38 37 41 37 38 40
41 49 53 58 58 62 65 66 66 67 70 69 70 69 69 67 65 64 63 63 62 60 52 52 47 47 47 50 54 52 49 46 47 46 43 41 41 41 39 39 42 42 39
47 50 52 56 57 61 65 68 68 68 69 70 71 73 69 63 64 65 68 74 73 61 52 49 44 43 45 47 50 53 51 48 51 53 50 42 40 39 42 40 43 42 44
51 53 57 60 63 65 66 70 72 71 70 71 74 69 68 70 70 68 65 67 61 54 48 49 46 46 47 46 53 57 61 56 56 55 67 65 63 55 45 46 43 41 39
55 58 61 63 65 63 62 64 66 68 72 76 72 72 73 77 65 58 54 51 50 48 49 50 52 52 54 49 52 57 61 67 61 52 52 68 64 66 63 57 57 53 46
59 59 60 63 65 66 64 66 69 72 79 74 69 66 63 60 56 53 52 50 49 50 54 55 54 51 51 49 47 42 42 47 56 56 48 51 71 75 71 75 75 67 58
60 62 61 63 64 65 66 68 69 67 63 61 58 57 55 53 49 49 50 49 50 58 59 56 50 48 47 49 54 55 56 56 57 60 58 53 60 65 67 80 72 73 72

GFSSE_prec_cthk_024.txt.gz
RH
53 46 47 47 47 48 48 44 42 44 48 48 48 48 49 47 47 49 50 50 52 55 57 58 55 54 52 52 52 52 55 58 54 50 48 44 42 42 41 50 62 64 70
50 44 47 48 48 43 44 45 47 47 47 43 40 41 43 43 44 46 45 46 47 47 49 50 49 49 51 50 47 48 55 56 56 50 48 46 44 49 44 41 52 62 60
43 43 49 45 41 42 43 40 40 39 36 34 36 39 39 37 36 36 37 40 44 45 43 43 43 49 47 42 42 42 44 47 47 46 47 48 50 61 55 52 56 56 55
44 45 42 39 34 33 31 28 26 26 27 27 28 26 25 26 27 28 31 34 36 40 42 45 42 37 35 33 32 27 25 28 31 36 41 52 59 79 61 71 57 51 53
41 33 30 28 27 23 22 22 22 23 21 20 19 19 20 22 23 25 25 26 25 25 26 25 23 22 22 22 23 24 26 27 26 30 39 53 60 86 52 71 63 53 52
27 23 23 22 21 21 20 20 20 18 17 16 16 16 17 19 20 20 18 16 16 18 19 20 20 20 20 20 22 24 26 27 29 33 40 46 55 48 48 61 59 55 53
21 19 19 18 18 18 16 15 14 14 14 15 15 18 20 21 20 16 16 17 18 19 18 15 13 12 12 13 14 17 19 20 21 27 33 43 41 51 64 70 68 59 56
20 18 18 19 18 15 14 11 9 10 12 14 17 19 21 19 16 16 18 20 21 20 17 15 14 12 10 9 9 10 10 11 12 22 32 36 27 36 47 51 55 57 58
21 20 22 21 17 15 10 9 8 10 12 14 16 18 19 18 19 20 22 24 24 24 23 21 20 19 18 16 13 12 12 12 14 21 34 36 30 30 33 37 41 45 53
28 31 29 27 19 17 17 11 10 11 13 15 16 19 26 31 30 31 31 28 28 28 27 26 26 26 25 25 25 26 22 19 24 28 31 36 34 32 33 34 35 36 39
32 32 32 32 25 24 23 22 22 20 25 25 28 28 38 40 46 45 41 42 39 38 36 36 36 35 34 34 35 35 34 37 35 36 36 38 35 31 28 30 33 35 39
34 33 32 29 20 26 33 32 34 36 35 38 39 42 52 43 48 45 47 45 43 40 41 43 41 42 44 43 42 42 42 41 39 36 39 39 35 32 26 26 30 33 36
38 39 42 30 23 37 34 39 46 48 48 45 48 44 42 45 50 47 45 45 42 44 44 43 41 44 46 43 41 41 41 40 40 43 45 43 41 38 31 28 27 26 32
46 45 41 37 29 29 38 43 43 49 52 55 54 49 45 48 48 45 46 44 44 45 45 46 44 43 42 43 41 39 38 37 37 40 42 44 43 40 35 34 32 31 30
50 48 48 44 38 39 36 42 45 47 56 56 54 49 45 46 46 46 46 46 46 47 47 46 44 41 40 39 39 38 35 34 34 34 36 36 39 39 36 36 36 35 34
46 49 53 47 44 42 44 45 45 49 52 53 54 52 49 50 49 47 47 44 44 45 43 41 39 38 37 38 38 37 35 33 31 30 32 34 34 35 35 36 37 38 38
63 57 55 71 57 51 53 52 51 53 53 53 57 57 57 53 51 50 50 50 50 49 45 42 42 44 43 43 43 42 41 37 34 32 31 32 31 30 30 31 32 35 38
53 54 84 59 59 55 57 56 55 56 56 58 61 65 63 58 56 55 57 57 55 53 52 52 50 48 47 46 45 45 47 47 44 39 36 33 34 32 32 30 30 30 31
49 50 52 58 61 63 60 62 62 60 60 63 69 70 67 64 63 62 59 57 55 55 55 57 57 58 54 50 45 44 46 50 50 47 43 39 37 38 36 33 33 31 30
42 45 47 54 63 64 66 63 64 63 65 67 70 71 68 67 63 65 58 57 58 58 56 56 61 60 53 48 44 38 37 37 43 49 45 42 41 40 41 40 37 33 31
44 46 50 53 58 61 62 63 65 67 68 69 68 70 68 69 70 65 62 61 67 64 58 56 54 48 44 45 42 40 38 40 44 42 43 48 46 44 44 42 39 38 35
44 46 51 56 59 60 62 65 65 67 68 67 67 70 71 78 75 66 62 62 57 54 50 46 41 39 40 45 50 48 45 42 43 44 48 55 63 58 54 56 52 47 42
48 51 55 58 60 63 63 63 63 63 63 64 68 69 73 76 71 66 59 54 49 45 40 39 38 41 44 46 53 60 57 52 50 43 47 58 71 81 84 84 70 59 61
53 56 59 60 62 59 58 59 59 62 64 66 67 67 62 60 58 55 53 47 43 43 43 43 50 51 54 53 51 53 58 66 65 51 47 46 59 73 78 96 90 94 77
56 59 62 64 61 56 56 59 60 59 57 55 54 54 54 55 54 53 50 49 49 51 52 57 56 56 57 59 57 54 54 55 69 71 55 48 53 54 64 75 70 89 75
60 59 58 56 55 58 58 53 52 52 54 56 57 58 57 56 56 52 50 48 48 53 60 63 61 61 55 58 57 61 60 60 61 68 69 57 53 49 60 64 67 71 98

GFSSE_prec_cthk_027.txt.gz
RH
65 54 44 43 44 43 42 40 40 42 42 43 42 40 40 40 42 42 41 40 41 43 46 48 51 52 50 55 55 59 57 58 58 61 59 50 52 53 44 44 49 56 63
61 52 44 43 44 41 42 42 43 41 40 37 35 35 36 36 35 34 33 33 34 37 38 38 42 45 40 43 44 45 47 52 52 54 51 51 51 57 66 59 62 58 59
48 43 41 40 40 40 40 38 37 34 32 29 30 30 28 25 24 25 25 27 27 30 31 35 39 37 40 41 38 34 32 31 35 43 50 50 53 61 74 75 74 72 66
43 40 40 36 38 34 30 26 24 22 22 21 21 17 17 19 21 22 23 23 24 24 25 25 25 25 20 19 20 21 23 25 26 31 39 46 50 51 80 76 71 68 64
37 38 34 34 28 23 20 19 20 19 18 16 15 15 14 16 18 19 20 18 16 16 16 17 17 17 17 17 17 18 19 21 25 31 39 40 41 43 50 52 72 77 57
28 26 24 22 19 19 19 17 16 15 14 14 13 13 14 17 19 16 13 14 14 15 16 14 12 11 11 11 13 14 16 19 22 28 35 37 39 35 51 52 64 80 63
20 19 18 18 18 17 14 11 9 9 11 12 12 14 16 18 14 14 15 17 18 18 16 15 14 13 10 8 8 8 8 9 13 22 26 24 32 31 39 46 63 71 58
17 17 17 19 17 14 11 7 6 8 9 11 13 16 18 17 16 19 21 23 23 23 22 21 20 19 19 18 16 13 11 11 11 18 17 20 26 22 22 32 45 42 45
17 18 20 18 16 11 8 7 8 9 10 11 13 15 19 22 24 25 25 25 26 26 26 25 25 24 24 23 23 23 22 18 20 26 25 25 25 23 22 25 30 34 41
23 26 26 22 15 14 12 10 10 12 16 18 20 25 27 30 33 34 37 38 38 35 34 33 33 34 33 33 33 32 31 30 33 33 30 29 32 35 32 25 24 29 32
27 28 25 22 15 19 22 25 21 22 22 26 30 34 36 36 37 36 39 38 37 35 36 37 35 34 35 36 38 37 37 38 38 39 39 37 38 36 32 29 27 30 30
31 28 25 25 18 24 25 31 33 37 36 34 37 38 40 40 42 42 41 41 39 39 39 37 36 34 34 34 35 36 34 34 36 38 38 38 40 41 40 37 28 26 32
31 31 30 30 25 30 32 35 38 38 43 41 46 46 41 44 45 44 43 41 41 41 41 41 40 38 37 36 35 34 34 34 33 35 35 36 39 41 39 38 33 31 31
39 39 40 38 24 29 38 40 40 43 47 47 50 45 42 45 48 46 46 43 42 41 41 41 40 38 36 34 33 34 33 31 30 30 31 33 36 39 38 37 34 34 33
45 42 39 35 30 31 36 38 42 48 49 49 49 47 45 48 50 50 45 44 43 44 44 43 42 38 36 35 35 34 33 31 30 30 28 26 27 30 32 33 33 34 34
47 45 46 45 63 53 48 45 44 45 49 49 48 49 49 49 53 52 51 50 50 50 50 47 45 40 39 40 39 39 39 38 37 36 35 32 29 28 28 28 28 29 32
55 51 69 74 82 85 67 54 53 52 55 53 50 50 52 53 58 57 56 55 54 52 49 47 46 46 47 45 46 43 41 41 39 38 40 40 35 33 31 30 29 28 27
52 46 62 69 75 93 77 63 61 58 59 58 56 57 58 59 57 59 60 58 58 55 50 48 48 48 49 48 49 51 48 42 42 41 40 44 43 39 35 32 31 30 29
50 49 47 58 66 77 65 66 63 61 62 60 64 66 68 66 60 59 59 60 62 60 55 50 52 56 52 48 44 42 39 34 35 40 43 42 42 42 40 37 34 33 31
52 53 48 49 57 54 55 55 59 60 64 65 65 66 65 64 61 63 63 63 67 65 56 51 47 46 45 44 40 36 34 34 36 35 35 41 45 46 41 37 38 39 38
63 62 56 46 43 48 52 57 59 65 67 65 66 65 65 62 62 66 64 64 59 54 48 45 43 39 36 36 35 32 33 36 37 38 40 46 51 54 55 49 47 45 43
59 55 54 53 54 54 56 58 61 63 60 60 60 63 64 65 65 63 63 58 54 48 46 44 40 38 37 40 40 40 39 38 39 41 43 49 55 58 61 66 77 78 70
48 51 52 51 54 56 57 60 59 53 52 56 61 65 68 68 65 61 58 55 51 50 45 44 43 44 44 50 60 64 62 60 53 48 46 49 48 52 62 69 76 73 77
50 53 52 53 56 60 60 55 53 53 54 55 55 53 52 53 55 56 54 53 53 47 44 42 42 48 53 56 61 67 67 67 59 47 46 53 58 55 56 64 74 83 86
50 52 54 58 60 56 50 49 49 49 50 52 53 55 56 55 55 54 54 47 40 40 42 47 49 52 55 56 54 55 47 50 54 59 46 45 49 53 60 60 59 64 73
51 55 57 55 54 56 55 56 57 55 54 53 53 54 53 53 53 49 39 40 40 40 40 39 43 46 46 47 45 43 42 41 42 48 47 40 44 48 56 61 67 67 70

GFSSE_prec_cthk_030.txt.gz
RH
73 60 51 51 49 43 41 37 37 38 40 40 38 37 36 35 36 37 37 36 35 36 37 38 39 41 45 46 47 51 54 52 55 53 51 50 47 45 41 41 43 49 52
66 55 48 44 41 39 37 39 39 38 35 33 30 31 31 29 28 27 27 27 26 27 28 30 31 32 36 39 45 45 42 42 41 42 45 45 48 47 46 48 51 54 58
56 48 42 40 40 39 38 38 34 31 28 26 25 22 19 17 18 19 20 21 21 21 22 22 24 27 27 24 24 25 25 24 26 32 36 37 40 45 51 58 57 61 62
52 44 39 39 39 36 31 25 21 20 20 19 17 15 14 14 15 17 18 19 16 14 13 14 15 16 16 16 15 16 18 22 27 29 27 27 34 43 46 65 60 57 64
53 39 40 36 33 25 18 18 18 17 16 15 15 13 12 13 14 15 12 10 10 12 13 13 12 11 11 12 13 14 16 19 24 30 32 34 36 38 38 43 53 56 64
38 35 30 29 23 17 17 16 14 13 13 12 11 11 13 14 12 11 11 13 15 15 15 14 14 13 11 8 8 7 8 11 17 23 26 28 30 30 33 46 49 60 69
29 26 23 18 17 17 13 10 7 8 10 10 11 13 13 13 13 14 17 19 20 20 20 19 19 18 18 19 18 16 12 11 11 17 20 21 21 26 24 29 39 49 57
19 18 17 17 16 14 9 6 6 7 9 11 12 14 14 15 16 17 19 21 23 25 26 26 26 26 26 26 25 24 23 20 19 21 21 20 22 26 28 27 32 43 47
17 18 18 18 16 10 7 6 8 10 11 12 13 16 19 23 24 25 28 29 31 31 30 30 30 30 31 31 32 34 34 31 33 33 32 30 30 33 35 31 29 32 36
20 22 23 17 13 11 10 10 12 13 16 18 22 27 26 28 30 31 31 31 32 32 32 31 30 30 31 32 35 35 35 37 40 41 42 42 39 40 40 35 32 31 36
25 26 24 19 15 18 22 22 24 24 26 27 30 32 33 34 35 34 35 35 36 37 35 34 33 34 34 33 32 33 33 35 38 39 37 41 41 42 45 44 40 33 28
23 23 21 20 17 21 25 29 31 33 32 35 35 35 35 38 39 39 39 38 39 38 36 35 34 34 34 34 33 33 33 33 34 34 34 35 36 39 42 42 42 40 32
30 32 30 27 22 23 28 35 37 37 40 39 39 40 37 40 41 42 42 41 40 38 36 37 38 37 35 34 32 31 31 31 32 32 30 30 34 36 38 39 39 38 34
34 33 36 34 29 27 35 39 44 41 42 43 43 43 38 41 44 45 45 45 45 43 42 41 42 41 39 37 34 33 33 33 33 32 31 29 27 28 30 32 35 35 35
40 40 44 43 43 41 37 43 46 48 48 47 48 49 46 44 46 48 48 48 48 48 47 45 43 42 40 39 38 36 36 37 37 37 36 34 33 30 27 25 26 28 31
43 44 56 71 62 67 56 58 60 53 54 55 55 53 52 49 48 51 51 51 50 49 48 48 47 44 40 40 39 40 40 40 40 40 40 40 38 36 36 32 28 26 26
43 46 53 62 73 70 67 65 66 66 59 59 61 57 55 55 55 58 58 56 54 52 51 53 53 51 46 43 43 43 43 41 40 41 42 41 42 42 40 39 35 31 29
51 53 58 64 61 68 58 56 61 61 63 63 62 62 62 62 63 61 58 57 57 58 56 55 59 58 52 42 39 38 40 40 40 39 38 36 40 41 40 42 39 36 33
54 57 67 75 74 70 64 55 57 60 65 65 68 70 73 72 66 63 60 58 58 60 58 57 56 49 42 37 35 33 32 32 31 32 34 33 32 40 46 45 45 45 40
62 70 77 83 75 73 61 59 64 69 69 68 70 71 70 65 65 66 66 66 65 61 58 54 48 43 39 35 32 29 28 26 26 28 33 35 35 35 38 43 45 46 46
75 76 82 79 77 66 66 68 67 70 71 73 72 67 64 65 67 69 70 66 60 59 54 48 43 40 37 34 32 29 29 31 33 33 36 37 38 41 41 43 49 50 51
68 70 66 65 67 64 65 65 68 70 71 71 65 65 67 69 69 65 62 60 59 55 50 46 44 40 38 35 36 38 37 33 36 44 49 48 47 50 54 56 55 54 56
56 53 53 54 56 57 59 62 64 63 60 58 60 61 61 60 58 57 56 55 54 52 49 43 36 34 37 40 42 45 43 40 35 35 39 44 50 55 58 58 59 63 67
47 48 48 51 54 56 55 56 54 49 51 53 54 54 53 53 53 53 53 52 48 39 34 34 35 39 40 44 44 42 44 42 37 31 32 34 39 44 50 55 58 63 65
44 44 45 46 47 47 48 48 49 51 50 47 48 48 49 51 51 50 48 37 32 32 34 35 37 37 37 42 44 43 43 44 44 41 31 32 29 32 36 42 55 60 62
45 44 47 50 51 52 53 52 48 46 47 50 54 57 55 53 53 48 36 31 28 28 29 32 35 37 38 41 44 46 45 48 49 52 45 37 39 34 36 38 40 53 63

GFSSE_prec_cthk_033.txt.gz
RH
69 62 58 55 50 47 42 38 36 36 37 37 34 32 31 31 30 30 29 28 29 29 29 29 30 31 33 34 38 37 39 42 40 39 36 38 41 44 41 40 41 49 56
64 52 51 50 46 42 38 36 37 36 35 32 29 27 25 21 20 20 20 21 21 21 20 22 24 26 29 29 28 29 32 30 29 27 25 24 30 36 42 43 47 51 58
58 56 52 47 40 40 38 37 33 31 27 24 22 18 15 15 14 15 17 18 18 17 14 13 15 16 16 17 17 15 17 19 21 23 23 25 27 29 33 39 51 57 60
59 55 47 41 41 39 36 28 23 21 19 18 16 15 13 12 13 15 14 12 10 10 11 12 12 12 12 12 13 16 16 17 21 22 24 26 31 33 33 32 46 51 51
60 54 43 38 35 30 24 18 18 17 15 15 14 12 11 12 13 10 10 11 13 14 14 14 13 13 12 10 9 9 11 13 16 21 24 27 29 30 30 29 41 45 50
49 42 37 30 27 21 17 17 14 12 11 11 10 10 11 12 11 14 16 18 18 18 18 18 17 18 18 18 18 18 16 13 13 15 19 24 26 24 20 25 33 33 48
40 33 29 25 18 16 14 11 7 7 8 9 9 11 14 15 16 18 20 21 23 24 25 24 25 25 25 25 25 25 23 22 21 22 23 22 22 21 26 23 22 30 37
29 25 19 17 16 15 11 6 6 8 9 11 14 15 17 21 23 25 25 25 27 28 28 28 28 29 29 29 29 31 32 31 29 29 31 31 30 30 34 34 41 35 37
18 17 18 18 15 11 7 7 9 10 12 14 17 21 25 26 29 30 32 31 31 32 32 31 30 29 29 30 32 33 34 34 36 36 38 39 41 45 48 51 44 40 37
18 21 20 16 11 9 8 10 12 14 17 20 26 29 30 32 33 32 32 32 32 33 32 32 31 31 30 31 31 31 31 32 36 38 41 42 41 43 48 58 56 46 38
22 24 22 15 14 15 15 18 20 22 25 27 30 32 33 34 35 38 38 38 39 38 38 36 34 34 33 32 32 31 31 31 31 31 32 34 35 38 38 47 53 44 41
23 21 20 15 16 21 25 26 29 31 31 33 33 32 33 36 38 40 40 40 41 42 44 43 42 41 41 41 38 36 35 34 31 30 29 30 29 31 35 38 41 43 42
28 31 30 27 22 25 27 31 31 33 37 39 37 37 36 40 41 41 42 42 44 43 44 45 46 46 45 43 42 43 43 40 38 35 33 31 31 28 28 31 35 38 39
38 38 38 33 27 29 32 35 36 42 47 50 49 46 44 43 45 45 46 44 46 47 47 49 49 48 46 43 40 41 42 43 43 42 40 38 35 32 31 28 27 28 31
43 41 42 39 41 46 48 48 49 52 57 55 53 49 50 47 44 47 49 48 48 48 47 47 48 48 48 48 47 41 40 41 43 44 42 42 41 39 37 36 33 28 25
41 43 46 48 53 59 55 56 53 50 50 53 55 54 53 52 52 54 55 54 51 51 51 48 48 49 49 49 50 51 47 40 41 44 45 41 41 42 43 40 39 37 32
45 48 48 50 56 61 60 65 60 55 53 56 57 59 59 59 60 59 59 57 58 58 55 52 53 54 53 51 50 45 40 37 35 36 41 44 42 42 44 44 41 40 39
48 50 60 65 71 76 78 75 66 57 58 61 64 64 64 64 64 60 61 59 58 59 58 56 52 49 46 43 38 33 32 30 30 28 29 29 30 33 33 36 41 41 41
54 61 72 86 87 89 88 81 67 61 62 63 64 66 67 69 65 65 64 60 60 58 57 55 53 48 44 41 35 31 30 30 29 28 26 26 28 29 29 29 32 42 43
62 70 79 83 86 88 79 72 66 68 65 64 67 70 72 69 68 68 65 63 63 62 59 56 51 47 44 37 33 28 25 25 25 30 33 34 33 32 32 32 32 35 44
68 81 83 83 81 76 75 76 72 70 68 70 71 71 69 69 70 68 65 62 61 57 54 51 49 44 40 36 29 25 25 28 29 29 33 35 38 40 40 40 41 42 43
78 69 67 67 69 70 67 63 64 64 66 69 71 67 66 65 61 59 57 57 56 54 51 48 44 38 34 33 32 31 29 25 26 26 25 26 27 34 40 44 47 49 50
61 57 57 56 54 54 55 58 63 63 61 59 57 57 55 54 52 51 51 53 53 51 41 34 33 34 34 31 30 33 32 30 28 24 23 24 24 24 24 27 34 44 52
58 54 53 52 51 52 54 54 55 55 57 58 57 54 54 54 56 56 56 54 47 37 32 31 31 30 29 32 30 32 37 38 42 35 34 29 28 27 28 29 27 31 39
55 51 49 50 51 52 50 50 52 56 57 54 53 55 56 56 54 51 47 40 33 31 31 30 28 29 32 35 37 38 39 41 42 46 40 39 34 33 34 34 31 34 37
57 58 57 55 54 54 54 56 53 50 52 53 56 57 56 51 45 40 34 31 30 30 29 28 28 30 33 33 39 43 45 48 50 54 54 44 47 37 38 46 46 40 37

GFSSE_prec_cthk_036.txt.gz
RH
63 60 59 57 55 53 46 39 38 38 37 38 35 30 30 29 29 29 26 25 25 25 24 25 26 27 29 31 31 30 31 31 30 28 28 26 29 39 42 44 43 43 49
63 57 50 50 54 49 40 40 39 38 39 36 31 28 24 20 18 16 18 20 20 20 18 16 16 16 19 21 21 21 19 17 17 17 18 21 25 30 36 37 40 44 52
66 54 54 54 50 39 39 38 36 35 31 27 22 17 15 13 12 14 15 15 13 11 11 12 13 13 13 13 15 15 16 15 16 17 18 21 25 29 31 31 37 41 54
65 58 55 50 42 37 38 33 27 23 20 17 16 14 11 11 13 11 10 11 13 14 14 14 14 13 12 12 11 10 11 12 13 16 19 23 26 27 28 34 37 44 48
66 63 51 47 39 35 28 20 18 16 15 15 13 10 10 11 10 12 15 16 16 16 17 17 17 17 17 17 17 16 16 17 15 15 19 22 24 27 27 27 31 45 45
59 52 45 40 31 24 17 16 14 9 10 9 8 9 11 12 15 17 19 20 22 21 21 22 22 23 23 23 24 23 22 22 21 23 23 21 21 22 23 23 31 33 38
49 45 38 28 24 16 16 12 7 7 8 8 11 13 15 18 19 21 23 23 23 25 26 27 27 28 27 27 27 27 27 26 26 27 30 31 30 24 20 22 26 27 41
45 33 28 23 16 16 12 6 7 9 11 14 17 18 20 24 25 27 28 29 29 30 30 29 29 28 28 30 30 30 30 30 31 32 34 36 35 34 32 36 35 36 37
29 26 19 17 16 12 7 7 9 11 15 18 21 25 27 29 31 31 30 30 32 33 33 33 31 30 29 29 28 28 28 29 32 34 37 39 40 39 40 42 44 44 42
18 19 20 17 11 8 8 10 13 16 19 23 27 30 31 31 32 33 33 34 35 35 37 38 38 38 35 33 31 31 30 30 30 30 31 34 37 36 39 39 42 50 46
20 21 18 13 10 10 12 15 18 21 26 30 32 32 34 34 35 36 36 37 38 37 39 41 43 42 42 41 40 39 36 35 34 33 31 29 30 31 32 35 36 39 46
22 21 15 14 14 16 20 21 24 28 32 34 37 40 39 41 41 43 43 43 42 40 41 43 44 44 45 45 44 42 40 40 41 39 37 33 31 30 30 30 32 36 36
27 26 23 17 19 24 25 28 31 34 39 44 51 52 48 45 43 46 45 44 46 45 44 45 46 45 46 46 46 45 43 43 40 40 40 37 36 35 32 31 30 28 29
34 33 31 24 24 30 34 36 40 46 51 50 54 54 55 51 46 46 46 48 50 50 47 46 47 47 46 46 45 47 47 45 44 41 38 38 37 37 36 35 34 34 31
40 41 43 40 41 47 48 49 53 58 58 53 52 53 53 52 51 50 51 53 55 52 50 49 52 51 50 49 50 50 48 47 47 44 42 39 38 38 38 36 36 37 36
42 46 50 52 53 53 57 65 65 64 60 58 56 56 57 57 56 57 56 58 58 57 56 55 55 55 54 51 49 46 42 40 36 32 31 33 35 37 38 39 38 36 39
49 53 57 55 57 60 67 70 77 76 72 63 60 61 60 58 58 59 60 62 62 61 59 58 56 51 48 48 45 42 39 38 33 29 27 25 25 26 28 30 33 36 37
51 54 62 71 77 82 87 88 83 85 77 67 68 65 61 64 64 65 65 66 65 62 59 54 54 52 51 47 44 42 40 37 30 26 25 25 25 24 25 26 26 27 30
54 59 64 78 89 93 96 86 89 83 75 72 69 66 67 69 68 68 68 68 65 59 55 54 54 49 47 45 44 42 38 33 28 26 25 27 28 30 30 29 28 28 27
58 62 73 87 97 91 95 91 82 80 72 69 69 70 70 70 70 67 64 60 56 54 52 49 47 45 43 39 35 31 28 25 25 26 27 26 27 28 30 31 32 32 31
75 81 89 93 90 87 87 81 75 74 66 65 63 63 62 60 60 58 54 51 50 48 46 46 43 37 32 28 26 24 24 27 26 24 26 24 24 24 23 25 28 32 34
83 82 73 71 69 69 68 64 61 59 58 56 55 53 52 52 50 48 48 48 48 47 45 40 34 30 28 27 27 26 25 22 22 22 20 22 23 23 22 20 18 18 21
68 65 62 59 56 53 50 48 48 47 49 52 54 54 52 50 51 52 52 50 46 38 32 27 25 24 24 24 26 29 29 28 28 27 24 24 24 26 27 26 25 22 19
61 59 57 54 53 51 53 54 52 54 55 55 57 56 56 58 55 49 41 34 29 27 26 24 25 24 24 25 27 29 32 36 39 38 38 32 28 28 29 30 29 26 25
58 57 57 59 61 64 61 57 58 59 58 57 56 56 57 53 46 38 30 28 27 25 23 22 22 23 25 27 29 30 30 33 36 42 39 37 39 35 37 40 40 36 35
70 71 70 72 69 65 67 65 63 60 54 55 54 52 48 41 33 29 27 27 26 26 26 25 25 28 30 34 34 35 37 39 41 48 53 56 53 39 41 48 51 54 48